GW2918 Weather Reports


time (UTC)temp
C
wind
direction
speed
KPH
gust
KPH
rain 1hr
cm
rain 24hr
cm
rain mn
cm
humidity
%
barometer
mb
20260906075653 14 32 3.2 9.7 0.00 0.00 0.00 99 1016.5
20260906074649 15 46 3.2 8.0 0.00 0.00 0.00 99 1016.3
20260906073649 15 26 3.2 6.4 0.00 0.00 0.00 99 1016.5
20260906072646 15 25 3.2 6.4 0.00 0.00 0.00 99 1016.4
20260906071643 15 39 1.6 6.4 0.00 0.00 0.00 99 1016.4
20260906070640 15 347 4.8 6.4 0.00 0.00 0.00 99 1016.0
20260906065635 15 357 4.8 4.8 0.00 0.00 0.00 99 1016.4
20260906064631 15 250 0.0 4.8 0.00 0.00 0.00 99 1016.3
20260906063627 15 1 3.2 3.2 0.00 0.00 0.00 99 1016.3
20260906062625 15 345 3.2 4.8 0.00 0.00 0.00 99 1016.3
20260906061625 15 22 3.2 6.4 0.00 0.00 0.00 99 1016.5
20260906060621 15 312 3.2 6.4 0.00 0.00 0.00 99 1016.5
20260906055620 15 359 4.8 6.4 0.00 0.00 0.00 99 1016.4
20260906054616 15 8 4.8 6.4 0.00 0.00 0.00 99 1016.7
20260906053613 15 306 3.2 4.8 0.00 0.00 0.00 99 1016.5
20260906052609 15 359 6.4 8.0 0.00 0.00 0.00 99 1016.3
20260906051607 15 7 3.2 6.4 0.00 0.00 0.00 99 1016.6
20260906050604 15 35 3.2 4.8 0.00 0.00 0.00 99 1016.7
20260906045603 15 22 3.2 6.4 0.00 0.00 0.00 99 1016.6
20260906044600 15 2 3.2 4.8 0.00 0.00 0.00 99 1016.5
20260906043556 15 63 0.0 3.2 0.00 0.00 0.00 99 1016.6
20260906042556 15 30 3.2 6.4 0.00 0.00 0.00 99 1016.6
20260906041554 15 18 6.4 8.0 0.00 0.00 0.00 99 1016.8
20260906040549 15 33 3.2 4.8 0.00 0.00 0.00 99 1016.4
20260906035546 15 11 3.2 4.8 0.00 0.00 0.00 99 1016.6
20260906034541 15 63 0.0 3.2 0.00 0.00 0.00 98 1016.6
20260906033538 15 78 3.2 6.4 0.00 0.00 0.00 97 1016.8
20260906032535 15 18 6.4 9.7 0.00 0.00 0.00 96 1016.3
20260906031531 16 349 4.8 8.0 0.00 0.00 0.00 95 1016.3
20260906030526 15 28 3.2 4.8 0.00 0.00 0.00 96 1016.4
20260906025525 15 4 3.2 3.2 0.00 0.00 0.00 96 1016.5
20260906024525 15 277 0.0 3.2 0.00 0.00 0.00 96 1016.4
20260906023521 15 50 3.2 4.8 0.00 0.00 0.00 94 1016.1
20260906022517 15 68 1.6 3.2 0.00 0.00 0.00 95 1016.5
20260906021514 15 157 0.0 3.2 0.00 0.00 0.00 96 1016.3
20260906020513 15 123 0.0 1.6 0.00 0.00 0.00 97 1016.1
20260906015512 15 136 3.2 3.2 0.00 0.00 0.00 94 1016.0
20260906014507 15 188 0.0 3.2 0.00 0.00 0.00 94 1016.1
20260906013503 16 269 3.2 3.2 0.00 0.00 0.00 92 1016.0
20260906012500 16 326 0.0 4.8 0.00 0.00 0.00 91 1015.9
20260906011455 16 14 3.2 4.8 0.00 0.00 0.00 90 1016.3
20260906010451 17 335 6.4 8.0 0.00 0.00 0.00 90 1015.9
20260906005447 17 10 4.8 12.9 0.00 0.00 0.00 89 1015.8
20260906004445 17 9 4.8 8.0 0.00 0.00 0.00 89 1015.8
20260906003441 16 339 3.2 6.4 0.00 0.00 0.00 90 1015.6
20260906002436 17 244 1.6 6.4 0.00 0.00 0.00 89 1015.3
20260906001433 17 349 4.8 9.7 0.00 0.00 0.00 88 1015.5
20260906000429 17 341 6.4 8.0 0.00 0.00 0.00 88 1015.5
20260905235424 17 347 0.0 8.0 0.00 0.00 0.00 87 1015.2
20260905234420 17 351 3.2 4.8 0.00 0.00 0.00 86 1015.2
20260905233416 18 356 4.8 6.4 0.00 0.00 0.00 85 1015.2
20260905232411 18 359 0.0 6.4 0.00 0.00 0.00 83 1015.3
20260905231408 18 358 0.0 8.0 0.00 0.00 0.00 82 1015.1
20260905230408 18 31 3.2 4.8 0.00 0.00 0.00 82 1015.3
20260905225408 19 34 4.8 4.8 0.00 0.00 0.00 81 1015.2
20260905224405 20 356 3.2 9.7 0.00 0.00 0.00 79 1015.2
20260905223403 20 8 3.2 6.4 0.00 0.00 0.00 78 1015.0
20260905222402 20 359 9.7 9.7 0.00 0.00 0.00 78 1014.9
20260905221400 20 67 1.6 9.7 0.00 0.00 0.00 78 1014.9
20260905220358 19 329 1.6 9.7 0.00 0.00 0.00 79 1014.9
20260905215353 20 52 3.2 6.4 0.00 0.00 0.00 77 1014.9
20260905214350 20 9 3.2 8.0 0.00 0.00 0.00 77 1014.9
20260905213347 20 18 6.4 9.7 0.00 0.00 0.00 76 1014.7
20260905212347 20 337 6.4 11.3 0.00 0.00 0.00 75 1014.7
20260905211343 21 339 12.9 14.5 0.00 0.00 0.00 72 1014.6
20260905210339 20 49 3.2 6.4 0.00 0.00 0.00 75 1014.5
20260905205338 21 352 9.7 9.7 0.00 0.00 0.00 71 1014.7
20260905204334 20 12 4.8 12.9 0.00 0.00 0.00 75 1014.6
20260905203329 21 7 4.8 11.3 0.00 0.00 0.00 75 1014.6
20260905202325 21 331 8.0 16.1 0.00 0.00 0.00 70 1014.3
20260905201322 21 326 14.5 14.5 0.00 0.00 0.00 72 1014.4
20260905200318 20 291 3.2 8.0 0.00 0.00 0.00 74 1014.3
20260905195317 22 341 12.9 14.5 0.00 0.00 0.00 70 1014.4
20260905194312 21 9 3.2 12.9 0.00 0.00 0.00 75 1014.6
20260905193313 21 312 3.2 12.9 0.00 0.00 0.00 74 1014.7
20260905192310 21 54 6.4 8.0 0.00 0.00 0.00 73 1014.5
20260905191308 22 313 3.2 8.0 0.00 0.00 0.00 68 1014.6
20260905190306 21 22 3.2 11.3 0.00 0.00 0.00 73 1014.7
20260905185306 22 295 6.4 9.7 0.00 0.00 0.00 69 1014.7
20260905184305 21 70 3.2 6.4 0.00 0.00 0.00 72 1014.8
20260905183300 21 3 9.7 11.3 0.00 0.00 0.00 70 1014.6
20260905182259 21 345 12.9 17.7 0.00 0.00 0.00 67 1014.9
20260905181254 21 64 0.0 9.7 0.00 0.00 0.00 78 1014.7
20260905180249 21 349 3.2 12.9 0.00 0.00 0.00 70 1014.6
20260905175244 21 66 3.2 14.5 0.00 0.00 0.00 72 1014.8
20260905174241 21 344 3.2 14.5 0.00 0.00 0.00 74 1014.8
20260905173238 20 18 3.2 14.5 0.00 0.00 0.00 74 1015.0
20260905172237 20 157 0.0 11.3 0.00 0.00 0.00 79 1014.9
20260905171235 20 352 1.6 12.9 0.00 0.00 0.00 80 1015.1
20260905170233 20 302 4.8 14.5 0.00 0.00 0.00 79 1015.4
20260905165233 20 73 14.5 19.3 0.00 0.00 0.00 78 1015.4
20260905164234 20 0 9.7 16.1 0.00 0.00 0.00 78 1015.2
20260905163232 20 312 3.2 11.3 0.00 0.00 0.00 76 1015.3
20260905162227 21 349 3.2 4.8 0.00 0.00 0.00 76 1015.3
20260905161226 20 10 1.6 12.9 0.00 0.00 0.00 79 1015.5
20260905160225 20 356 12.9 14.5 0.00 0.00 0.00 77 1015.3
20260905155225 20 314 4.8 14.5 0.00 0.00 0.00 80 1015.4
20260905154221 20 328 11.3 14.5 0.00 0.00 0.00 78 1015.5
20260905153218 19 345 4.8 12.9 0.00 0.00 0.00 81 1015.4
20260905152213 19 30 3.2 8.0 0.00 0.00 0.00 82 1015.5
20260905151209 19 353 9.7 12.9 0.00 0.00 0.00 82 1015.5
20260905150208 19 0 8.0 20.9 0.00 0.00 0.00 82 1015.4
20260905145207 19 44 3.2 14.5 0.00 0.00 0.00 82 1015.6
20260905144206 19 104 12.9 14.5 0.00 0.00 0.00 84 1015.3
20260905143205 18 41 4.8 16.1 0.00 0.00 0.00 85 1015.4
20260905142204 18 96 9.7 11.3 0.00 0.00 0.00 87 1015.5
20260905141201 18 87 12.9 17.7 0.00 0.00 0.00 87 1015.3
20260905140156 18 43 11.3 22.5 0.00 0.00 0.00 86 1015.5
20260905135153 17 348 17.7 19.3 0.00 0.00 0.00 90 1015.4
20260905134151 16 74 11.3 12.9 0.00 0.00 0.00 92 1015.4
20260905133147 17 355 4.8 8.0 0.00 0.00 0.00 92 1015.4
20260905132148 17 16 3.2 9.7 0.00 0.00 0.00 93 1015.5
20260905131143 17 26 4.8 22.5 0.00 0.00 0.00 94 1015.4
20260905130143 18 313 6.4 11.3 0.00 0.00 0.00 91 1015.4
20260905125140 18 302 8.0 9.7 0.00 0.00 0.00 91 1015.3
20260905124137 17 343 4.8 14.5 0.00 0.00 0.00 94 1015.1
20260905123136 17 20 3.2 11.3 0.00 0.00 0.00 93 1015.2
20260905122130 17 40 4.8 6.4 0.00 0.00 0.00 92 1015.4
20260905121126 17 43 1.6 4.8 0.00 0.00 0.00 93 1015.1
20260905120120 16 335 3.2 8.0 0.00 0.00 0.00 95 1015.4
20260905115120 16 345 4.8 4.8 0.00 0.00 0.00 95 1015.3
20260905114118 16 2 4.8 6.4 0.00 0.00 0.00 97 1015.3
20260905113115 15 15 3.2 8.0 0.00 0.00 0.00 99 1015.1
20260905112111 15 257 0.0 3.2 0.00 0.00 0.00 99 1015.0
20260905111110 15 53 0.0 3.2 0.00 0.00 0.00 99 1014.9
20260905110105 14 109 1.6 3.2 0.00 0.00 0.00 99 1014.6
20260905105105 14 96 1.6 3.2 0.00 0.00 0.00 99 1014.8
20260905104100 14 13 0.0 3.2 0.00 0.00 0.00 99 1014.4
20260905103058 14 65 0.0 3.2 0.00 0.00 0.00 99 1014.4
20260905102056 15 139 0.0 3.2 0.00 0.00 0.00 99 1014.5
20260905101052 15 38 3.2 4.8 0.00 0.00 0.00 99 1014.1
20260905100048 15 29 0.0 1.6 0.00 0.00 0.00 99 1014.3
20260905095044 15 7 3.2 3.2 0.00 0.00 0.00 99 1014.1
20260905094044 15 346 0.0 3.2 0.00 0.00 0.00 99 1014.3
20260905093041 15 31 3.2 3.2 0.00 0.00 0.00 99 1014.1
20260905092037 15 61 3.2 4.8 0.00 0.00 0.00 99 1014.0
20260905091036 15 29 0.0 4.8 0.00 0.00 0.00 98 1013.9
20260905090032 15 357 0.0 3.2 0.00 0.00 0.00 98 1014.0
20260905085026 15 144 1.6 4.8 0.00 0.00 0.00 97 1014.3
20260905084026 15 18 3.2 3.2 0.00 0.00 0.00 97 1014.3
20260905083024 15 69 0.0 1.6 0.00 0.00 0.00 97 1014.4
20260905082021 15 217 0.0 4.8 0.00 0.00 0.00 96 1014.3
20260905081020 15 350 1.6 3.2 0.00 0.00 0.00 96 1014.4
20260905080016 15 202 0.0 0.0 0.00 0.00 0.00 97 1014.5